This demonstration page uses our WeatherBlox Daily Observations layout. Learn more.

Left ArrowRight Arrow

Hourly Observations for May 8, 2016

Temp ( °F °C ) Dew Point ( °F °C ) Humidity (%) Winds ( mph kmh ) Pressure ( in mb ) Visibility ( mi km ) Precip ( " mm )
12:51 am 00:51 Clear 59 15 32 0 36 36 WNW 7 11 29.72 1006 10 16 0.00 0.00
1:51 am 01:51 Clear 57 13.9 32 0 39 39 NW 9 15 29.72 1007 10 16 0.00 0.00
2:51 am 02:51 Clear 57 13.9 31 -0.6 37 37 NW 13 20 29.72 1007 10 16 0.00 0.00
3:51 am 03:51 Clear 57 13.9 32 0 39 39 NW 9 15 29.72 1007 10 16 0.00 0.00
4:51 am 04:51 Clear 56 13.3 33 0.6 42 42 NNW 9 15 29.72 1007 10 16 0.00 0.00
5:51 am 05:51 Sunny 56 13.3 36 2.2 47 47 NNW 8 13 29.74 1007 10 16 0.00 0.00
6:51 am 06:51 Sunny 61 16.1 35 1.7 38 38 NNW 7 11 29.76 1008 10 16 0.00 0.00
7:51 am 07:51 Sunny 64 17.8 36 2.2 35 35 WNW 15 24 29.76 1008 10 16 0.00 0.00
8:51 am 08:51 Sunny 66 18.9 36 2.2 33 33 WNW 15 24 29.77 1008 10 16 0.00 0.00
9:51 am 09:51 Mostly Sunny 67 19.4 37 2.8 33 33 NW 10 17 29.76 1008 10 16 0.00 0.00
10:51 am 10:51 Partly Cloudy 69 20.6 36 2.2 30 30 W 10 17 29.76 1008 10 16 0.00 0.00
11:51 am 11:51 Partly Cloudy 70 21.1 35 1.7 28 28 undefined N/A 29.75 1008 10 16 0.00 0.00
12:51 pm 12:51 Mostly Cloudy 71 21.7 35 1.7 27 27 VRB 6 9 29.74 1007 10 16 0.00 0.00
1:51 pm 13:51 Sunny 74 23.3 35 1.7 24 24 WNW 14 22 29.72 1007 10 16 0.00 0.00
2:51 pm 14:51 Mostly Sunny 73 22.8 32 0 22 22 NW 10 17 29.70 1006 10 16 0.00 0.00
3:51 pm 15:51 Partly Cloudy 75 23.9 30 -1.1 19 19 WNW 21 33 29.67 1005 10 16 0.00 0.00
4:51 pm 16:51 Mostly Sunny 73 22.8 28 -2.2 19 19 WNW 15 24 29.68 1005 10 16 0.00 0.00
5:51 pm 17:51 Sunny 72 22.2 29 -1.7 20 20 NW 25 41 29.69 1005 10 16 0.00 0.00
6:51 pm 18:51 Mostly Sunny 69 20.6 26 -3.3 20 20 NW 21 33 29.71 1006 10 16 0.00 0.00
7:51 pm 19:51 Clear 67 19.4 29 -1.7 24 24 WNW 15 24 29.74 1007 10 16 0.00 0.00
8:51 pm 20:51 Clear 64 17.8 30 -1.1 28 28 WNW 12 19 29.78 1009 10 16 0.00 0.00
9:51 pm 21:51 Clear 61 16.1 29 -1.7 30 30 WNW 9 15 29.81 1009 10 16 0.00 0.00
10:51 pm 22:51 Clear 58 14.4 30 -1.1 35 35 NW 7 11 29.81 1010 10 16 0.00 0.00
11:51 pm 23:51 Clear 57 13.9 31 -0.6 37 37 NW 8 13 29.81 1010 10 16 0.00 0.00

Powered by AerisWeather